Theta_e
349 349 346 344 342 341 343 345 346 346 345 344 341 339 337 337 336 344 347 342 342 344 343 343 343 344 344 343 342 341 339 336 336
348 348 347 345 344 343 343 340 347 347 342 341 338 336 336 342 341 347 346 344 344 345 344 344 344 344 344 345 345 344 343 343 341
345 345 345 346 346 342 342 342 343 343 340 337 338 340 340 340 344 343 340 338 337 336 334 333 332 332 334 339 341 343 345 345 344
347 346 345 344 340 340 345 342 341 341 337 339 340 339 339 339 339 335 330 328 325 323 321 320 319 319 319 320 321 323 327 334 342
348 348 348 344 342 342 339 338 338 340 336 337 337 338 339 338 333 327 322 320 317 315 313 313 314 316 317 317 318 318 318 318 320
347 348 345 343 343 343 339 339 338 338 338 338 339 339 336 331 325 321 316 313 312 314 317 319 319 320 320 321 322 322 322 321 321
346 346 344 343 344 341 341 340 340 338 338 338 336 332 329 324 319 314 313 315 317 319 320 319 319 320 320 320 320 321 322 322 321
346 344 344 342 343 343 341 340 340 340 339 335 332 329 323 316 313 316 317 318 319 318 315 315 315 316 317 317 318 318 318 320 321
347 345 344 342 341 341 340 339 336 333 332 330 326 318 314 315 317 316 315 315 314 314 314 314 314 314 314 315 315 315 315 316 316
347 345 343 341 339 338 336 334 333 331 330 325 317 314 314 314 313 313 313 313 313 312 309 307 306 306 305 305 304 305 307 309 313
346 344 341 339 338 336 334 333 331 330 326 319 314 313 312 312 309 306 312 313 310 307 307 307 307 306 306 305 305 304 303 304 309
345 344 340 339 337 335 334 332 330 327 323 316 312 311 310 308 306 306 310 310 307 308 308 308 308 307 307 306 306 305 304 303 305
347 342 340 339 336 335 334 330 327 323 316 312 312 310 311 309 308 307 307 307 309 309 310 310 310 309 308 308 307 306 305 304 304
343 343 342 337 336 334 330 327 323 316 312 312 310 308 308 309 307 309 309 309 309 309 309 309 309 310 311 309 308 308 306 305 305
342 342 336 336 334 330 326 322 317 312 310 310 308 308 309 310 310 311 311 312 311 310 310 310 310 308 310 311 308 308 308 306 306
341 337 335 332 329 326 322 319 314 310 309 309 309 311 312 312 312 311 310 309 310 310 310 310 310 311 311 312 309 308 308 307 306
337 335 331 329 327 324 321 316 312 309 310 310 310 310 311 312 310 310 309 309 309 310 311 312 312 311 311 311 312 311 308 307 307
334 331 329 328 325 321 317 313 309 308 312 312 313 309 311 310 310 309 310 311 311 311 310 310 310 310 310 310 311 310 307 308 308
332 330 328 324 319 316 313 309 307 307 310 312 310 310 310 310 311 312 312 312 312 312 312 311 311 310 311 310 310 310 308 307 307
330 328 326 321 317 312 309 308 304 307 311 310 309 310 311 312 312 312 313 313 313 313 313 312 314 313 311 311 311 310 310 308 308
Wind_Speed
19 19 24 24 20 10 2 4 3 7 8 14 16 17 5 11 16 16 8 6 8 7 7 8 8 9 10 10 10 10 11 11 11
16 17 17 19 18 12 5 6 10 8 6 8 11 9 4 4 4 2 6 8 9 11 13 13 12 12 12 14 13 12 12 13 14
12 13 14 13 11 9 7 6 8 8 8 10 14 12 8 5 6 8 10 11 13 15 17 16 16 16 16 16 16 17 16 15 16
12 12 11 10 12 9 6 8 8 9 13 15 12 8 6 7 6 9 10 12 14 14 14 14 15 15 14 14 15 16 17 18 19
13 11 12 12 12 9 9 11 11 12 13 10 6 4 7 9 10 12 12 13 13 13 14 15 13 13 14 13 12 13 14 15 17
12 13 14 15 13 12 13 14 14 14 12 8 6 5 8 11 13 13 11 11 13 14 14 14 14 13 13 14 13 13 12 13 14
13 14 16 17 17 17 18 17 14 11 8 6 8 9 10 12 11 11 12 13 12 12 14 14 14 14 13 12 13 14 13 12 12
16 17 17 18 20 19 17 16 13 9 6 3 2 8 10 9 9 10 10 10 11 12 13 13 13 12 12 14 15 18 18 17 16
21 22 20 19 20 19 17 14 12 10 6 3 6 7 5 6 6 8 10 11 12 13 15 17 17 18 18 18 19 19 19 19 17
24 24 23 21 19 18 17 15 11 7 3 4 4 3 5 7 8 9 11 12 12 14 15 16 19 20 22 23 22 21 20 19 18
23 22 22 20 19 19 17 14 9 3 2 4 5 6 7 7 7 7 8 9 11 14 15 18 20 21 22 22 23 23 22 21 21
22 22 21 20 20 19 17 12 6 2 2 2 2 2 3 5 7 7 8 10 12 12 14 16 18 19 21 23 24 25 26 25 24
21 22 23 23 22 19 15 11 6 3 2 2 4 6 7 7 7 10 11 11 10 10 11 12 14 15 17 19 21 24 26 27 26
23 26 25 24 22 19 15 10 6 3 3 5 6 6 7 8 9 10 9 8 8 8 9 10 11 12 14 17 19 21 24 26 26
31 30 28 26 25 21 15 9 4 4 6 6 6 9 9 7 7 7 5 4 5 7 9 11 13 14 13 13 16 17 18 21 23
32 31 30 28 23 19 14 8 6 6 7 8 11 9 7 4 3 2 3 3 5 7 12 13 13 12 12 12 14 15 15 17 18
33 31 31 27 22 17 12 8 7 8 10 12 9 6 5 3 2 2 4 4 6 7 9 10 11 11 12 12 14 13 15 19 19
32 32 28 24 18 13 10 8 9 11 12 11 7 5 6 4 3 5 7 7 6 7 9 12 13 13 12 13 14 16 14 17 18
35 32 26 21 15 12 11 11 11 12 13 12 10 10 7 6 6 5 4 6 8 9 11 13 14 13 13 13 13 14 14 14 14
33 28 22 16 13 12 13 11 12 13 14 11 13 12 7 4 1 2 5 8 11 14 16 16 11 11 13 14 16 15 14 13 14
Wind_Direction
168 178 190 197 208 225 216 245 181 188 228 246 244 259 284 293 217 272 262 268 281 293 294 298 299 298 293 291 291 293 296 294 294
166 173 180 194 210 234 217 217 176 204 251 253 219 241 317 121 134 245 307 315 322 320 318 307 303 298 291 286 284 281 278 283 284
152 161 171 178 190 212 228 206 198 196 189 159 143 140 124 56 2 340 323 315 315 313 312 310 307 304 298 290 285 282 278 273 273
156 165 169 178 197 207 209 185 187 154 164 159 140 121 65 43 2 333 321 316 317 316 315 318 320 317 314 309 301 291 283 279 274
137 144 153 161 168 166 173 165 162 162 162 166 138 65 26 5 347 335 331 329 327 334 329 327 333 341 341 338 329 321 309 300 291
139 139 139 147 152 160 145 136 135 140 142 121 85 38 352 350 340 337 335 336 337 341 348 352 353 353 354 353 348 340 332 324 317
146 143 141 147 149 142 135 130 120 114 107 71 30 5 342 337 335 339 347 354 358 359 360 357 358 356 355 355 357 349 349 344 333
148 148 150 151 150 149 145 139 135 133 132 128 309 330 337 337 347 2 5 9 10 13 15 19 21 24 20 15 15 5 355 345 342
158 157 158 158 155 155 154 154 140 132 112 39 356 349 358 14 24 24 30 40 51 50 49 47 45 41 36 32 29 19 10 3 355
166 164 163 161 161 159 157 144 137 124 73 3 357 10 47 50 49 51 63 66 57 53 51 50 48 43 37 33 28 18 10 5 359
171 171 167 163 162 162 156 153 149 140 12 360 26 49 57 52 50 56 83 72 68 68 61 54 47 41 37 33 28 21 18 16 19
180 176 170 168 169 169 166 166 164 167 318 348 61 55 65 70 63 82 97 95 86 67 53 45 41 36 33 30 27 21 18 19 24
171 169 173 175 173 173 176 174 176 214 202 167 105 99 90 82 78 101 100 91 71 54 40 33 28 23 23 23 23 21 19 20 22
170 173 176 175 173 177 178 179 186 141 126 118 117 119 113 101 104 102 93 79 61 41 29 20 14 8 6 9 12 16 17 18 21
168 170 171 174 174 174 176 173 130 132 138 138 135 126 129 122 105 95 83 56 36 25 16 7 4 6 5 357 359 3 10 13 17
166 168 168 171 172 170 166 156 142 155 157 149 140 141 142 126 90 66 36 23 28 26 15 13 6 4 2 3 357 357 1 5 10
163 167 166 167 170 169 169 163 152 155 158 150 149 147 158 140 85 26 360 20 53 38 13 11 11 11 11 5 2 355 355 358 360
163 164 167 169 169 170 171 172 167 163 166 167 166 155 148 127 90 86 82 75 53 26 2 353 355 359 353 352 355 357 355 358 356
166 166 165 166 169 176 178 170 168 169 168 166 158 148 146 134 115 95 55 26 11 357 343 328 322 322 331 334 335 348 357 357 3
165 164 164 170 177 175 170 168 168 164 160 159 152 151 154 153 137 325 333 340 341 350 1 1 342 316 307 318 325 323 333 341 349